[[{"header":{"parameterUnit":"m.s-1","parameterCategory":1,"la1":30.2991,"la2":30.254,"lo1":-89.0895,"lo2":-89.0444,"dy":0.0017,"dx":0.0017,"nx":28,"ny":28,"refTime":"2024-08-30T03:00:00:Z","depth":0,"parameterNumber":2,"parameterNumberName":"U-component_of_WINDS"},"data":[0,0,0,0,0,0,0,0,0,0,0,0,0,0,0,0,0,0,0,0,0,0,0,0,0,0,0,0,0,0,0,0,0,0,0,0,0,0,0,0,0,0,0,0,0,0,0,0,0,0,0,0,0,0,0,0,0,0,-2.7432,-2.744,0,-2.8104,-2.8112,-2.812,-2.8442,-2.8442,-2.8442,-2.8441,-2.9124,-2.9142,-2.916,0,0,0,0,0,0,0,0,0,0,0,0,0,-2.6426,-2.6443,-2.7432,-2.744,-2.7449,-2.8103,-2.8112,-2.8122,-2.8442,-2.8442,-2.8442,-2.8441,-2.9118,-2.914,-2.9162,0,0,0,0,0,0,0,0,0,0,0,0,0,-2.6956,-2.6448,-2.743,-2.7688,-2.7717,-2.8101,-2.8113,-2.8124,-2.8442,-2.8442,-2.8441,-2.8441,-2.9111,-2.9138,-2.9165,-2.9342,0,0,-2.9249,-2.9261,0,0,0,0,0,0,0,0,-2.6926,-2.6993,-2.7641,-2.7671,-2.7705,-2.8189,-2.8009,-2.8532,-2.8442,-2.8167,-2.8441,-2.8441,-2.8813,-2.8865,-2.8992,-2.9374,-2.9404,-2.9252,-2.9269,-2.928,-2.9288,0,0,0,0,0,0,0,-2.6889,-2.6966,-2.7698,-2.765,-2.7689,-2.777,-2.7844,-2.8109,-2.8483,-2.8191,-2.8216,-2.8291,-2.883,-2.8964,-2.901,-2.9414,-2.9251,-2.9276,-2.9293,-2.9303,-2.9982,-2.9983,0,0,0,0,0,0,-2.681,-2.6933,-2.7677,-2.7718,-2.7307,-2.7788,-2.7872,-2.8034,-2.8482,-2.855,-2.8291,-2.8304,-2.8917,-2.8978,-2.9035,-2.9277,-2.928,-2.9306,-2.9322,-2.998,-2.9982,-2.9984,0,0,0,0,0,0,-2.6787,-2.6874,-2.7649,-2.7333,-2.7438,-2.7806,-2.7985,-2.8047,-2.8182,-2.8557,-2.8625,-2.8359,-2.892,-2.8997,-2.9266,-2.9305,-2.9319,-2.9344,-2.9979,-2.9981,-2.9983,-2.9757,0,0,0,0,0,0,-2.6757,-2.6863,-2.6934,-2.7332,-2.7453,-2.7867,-2.7987,-2.8061,-2.8229,-2.8253,-2.8639,-2.8703,-2.8925,-2.9223,-2.9293,-2.9343,-2.9365,-2.9977,-2.998,-2.9982,-2.9762,-2.9751,-2.9741,0,0,0,0,0,-2.672,-2.6841,-2.6936,-2.7024,-2.755,-2.7869,-2.7939,-2.8193,-2.8231,-2.8306,-2.8548,-2.8691,-2.9289,-2.9247,-2.9329,-2.9388,-2.9975,-2.9979,-2.9982,-2.9767,-2.9753,-2.9741,0,0,0,0,0,0,-2.6435,-2.6898,-2.7008,-2.7261,-2.7524,-2.7923,-2.8024,-2.8169,-2.8425,-2.8435,-2.8739,-2.8824,-2.9066,-2.9255,-2.92,-2.9587,-2.9646,-2.9666,-2.9454,-2.9444,-2.9434,-2.9383,-2.9388,0,0,0,0,0,-2.6402,-2.6623,-2.7016,-2.7201,-2.7328,-2.7652,-2.7801,-2.7976,-2.8259,-2.8371,-2.8632,-2.89,-2.9151,-2.9308,-2.9558,-2.9791,-2.9882,-2.9873,-2.9862,-2.9851,-2.9865,-3.0008,-3.0009,-2.9995,-2.9995,-2.9995,0,0,-2.6335,-2.6616,-2.6736,-2.7151,-2.7375,-2.7598,-2.7744,-2.7972,-2.8141,-2.8405,-2.8677,-2.8878,-2.9198,-2.9451,-2.9575,-2.9615,-2.989,-2.9856,-2.9844,-2.9865,-3.0011,-3.0012,-3.0013,-2.9997,-2.9996,-2.9996,0,0,-2.6328,-2.6561,-2.6744,-2.6967,-2.7306,-2.7522,-2.7565,-2.7945,-2.809,-2.8368,-2.8572,-2.8777,-2.9198,-2.942,-2.9587,-2.967,-2.9813,-2.9743,-2.9687,-2.9823,-2.9824,-2.9826,-2.9859,-2.9866,-2.9755,-2.9755,-2.9754,0,-2.6202,-2.6547,-2.6819,-2.7039,-2.7217,-2.747,-2.7659,-2.7861,-2.8261,-2.8379,-2.8418,-2.8958,-2.919,-2.9501,-2.9522,-2.9648,-2.9709,-2.97,-2.9802,-2.9807,-2.9814,-2.9848,-2.9859,-2.9744,-2.9745,-2.9746,-2.9747,0,-2.6377,-2.6613,-2.672,-2.7106,-2.7296,-2.7497,-2.7802,-2.7962,-2.812,-2.8332,-2.8614,-2.8903,-2.9219,-2.9305,-2.946,-2.964,-2.9655,-2.9743,-2.981,-2.98,-2.9838,-2.9853,-2.9729,-2.9733,-2.9736,-2.9739,0,0,-2.6205,-2.6743,-2.6778,-2.6958,-2.7353,-2.7541,-2.7756,-2.8068,-2.82,-2.8469,-2.8659,-2.9013,-2.91,-2.929,-2.9473,-2.9591,-2.9643,-2.9668,-2.968,-2.9655,-2.9863,-2.9794,-2.9804,-2.974,-2.9744,-2.9747,-2.9837,0,-2.6254,-2.6653,-2.6907,-2.7205,-2.7429,-2.7675,-2.7864,-2.8126,-2.8331,-2.8551,-2.8778,-2.9025,-2.912,-2.9237,-2.9365,-2.9609,-2.9689,-2.9606,-2.992,-2.9928,-2.9833,-2.9824,-2.9751,-2.9822,-2.9853,-2.9855,-2.9857,0,-2.6364,-2.6631,-2.6951,-2.7327,-2.7431,-2.7595,-2.7904,-2.8111,-2.8415,-2.8557,-2.8771,-2.8958,-2.9197,-2.9243,-2.9578,-2.9516,-2.966,-2.9799,-2.9809,-2.9848,-2.9892,-2.9864,-2.9851,-2.9861,-2.9883,-2.9881,-2.9879,0,-2.6209,-2.6649,-2.69,-2.7046,-2.7489,-2.76,-2.7789,-2.8094,-2.8267,-2.8536,-2.8652,-2.8944,-2.9103,-2.9326,-2.9587,-2.9596,-2.9897,-2.9964,-3.0022,-3.0015,-3.0074,-3.0066,-3.0083,-3.0163,-3.0163,-3.0162,-3.0162,0,-2.6238,-2.6424,-2.6837,-2.699,-2.7208,-2.75,-2.7707,-2.7917,-2.8187,-2.8387,-2.8617,-2.8799,-2.9133,-2.9357,-2.9563,-2.9811,-2.988,-3.0002,-3.0055,-2.9983,-2.9967,-3.0081,-3.0083,-3.0166,-3.0165,-3.0164,-3.0164,0,-2.61,-2.6384,-2.6674,-2.7072,-2.7177,-2.732,-2.7662,-2.7821,-2.8041,-2.8291,-2.8366,-2.871,-2.8986,-2.927,-2.9641,-2.9781,-3.0023,-3.0094,-2.992,-2.995,-2.9993,-2.9985,-3.0085,-3.0114,-3.0169,-3.0168,-3.0168,0,-2.61,-2.6251,-2.6667,-2.6819,-2.7004,-2.7244,-2.7424,-2.7718,-2.7895,-2.8257,-2.8372,-2.8667,-2.8918,-2.9347,-2.963,-2.9917,-2.9998,-3.0014,-3.0042,-2.9967,-3.0002,-2.999,-3.0008,-3.0002,-2.9999,-2.9998,-2.9997,0,-2.607,-2.6205,-2.6455,-2.6756,-2.6964,-2.7214,-2.7473,-2.7584,-2.7929,-2.8116,-2.8403,-2.8598,-2.8982,-2.9271,-2.9593,-2.9789,-2.9951,-2.9986,-3.0015,-2.9943,-2.9837,-2.9898,-2.9892,-2.9982,-2.9983,-2.9984,-2.9985,-2.9986,-2.6004,-2.6151,-2.6469,-2.6742,-2.6968,-2.7206,-2.7378,-2.7621,-2.7866,-2.8203,-2.8362,-2.865,-2.8956,-2.9406,-2.9599,-2.9829,-2.9874,-2.9915,-2.9926,-2.9932,-2.9916,-2.9799,-2.9889,-2.9889,-2.989,-2.9891,-2.9891,0,-2.5988,-2.6206,-2.6454,-2.6812,-2.7027,-2.7164,-2.7459,-2.763,-2.7881,-2.8154,-2.8399,-2.873,-2.9014,-2.9321,-2.9624,-2.9749,-2.9831,-2.9819,-2.9813,-2.9856,-2.9857,-2.9803,-2.9748,-2.9748,-2.9748,-2.9748,-2.9748,-2.9748,-2.6005,-2.6263,-2.6435,-2.681,-2.7028,-2.7314,-2.7471,-2.7693,-2.7914,-2.8275,-2.8513,-2.8713,-2.9002,-2.9328,-2.9595,-2.9678,-2.9779,-2.9746,-2.9849,-2.9845,-2.9855,-2.9865,-2.9816,-2.9765,-2.9765,-2.9831,-2.9831,-2.9832]},{"header":{"parameterUnit":"m.s-1","parameterCategory":1,"la1":30.2991,"la2":30.254,"lo1":-89.0895,"lo2":-89.0444,"dy":0.0017,"dx":0.0017,"nx":28,"ny":28,"refTime":"2024-08-30T03:00:00:Z","depth":0,"parameterNumber":3,"parameterNumberName":"V-component_of_WINDS"},"data":[0,0,0,0,0,0,0,0,0,0,0,0,0,0,0,0,0,0,0,0,0,0,0,0,0,0,0,0,0,0,0,0,0,0,0,0,0,0,0,0,0,0,0,0,0,0,0,0,0,0,0,0,0,0,0,0,0,0,3.3386,3.3388,0,3.3556,3.3558,3.356,3.3639,3.3639,3.3639,3.3639,3.3796,3.38,3.3804,0,0,0,0,0,0,0,0,0,0,0,0,0,3.3118,3.3122,3.3386,3.3388,3.3391,3.3556,3.3558,3.356,3.3639,3.3639,3.3639,3.3638,3.3795,3.38,3.3805,0,0,0,0,0,0,0,0,0,0,0,0,0,3.3255,3.3124,3.3386,3.345,3.3458,3.3555,3.3558,3.3561,3.3639,3.3639,3.3639,3.3638,3.3793,3.3799,3.3806,3.3847,0,0,3.3825,3.3828,0,0,0,0,0,0,0,0,3.3247,3.3265,3.3439,3.3446,3.3454,3.3577,3.3521,3.3656,3.3639,3.3569,3.3638,3.3638,3.3722,3.3734,3.3766,3.3854,3.3861,3.3826,3.3829,3.3832,3.3834,0,0,0,0,0,0,0,3.3238,3.3258,3.3453,3.3441,3.3451,3.3466,3.3486,3.3547,3.3643,3.3575,3.3582,3.3602,3.3726,3.3759,3.377,3.3864,3.3825,3.3831,3.3835,3.3838,3.3997,3.3997,0,0,0,0,0,0,3.322,3.3249,3.3448,3.3458,3.3349,3.3471,3.3493,3.3537,3.3643,3.366,3.3601,3.3605,3.3749,3.3762,3.3776,3.3833,3.3832,3.3838,3.3842,3.3996,3.3997,3.3997,0,0,0,0,0,0,3.3214,3.3237,3.3441,3.3356,3.3383,3.3476,3.3525,3.354,3.3574,3.3663,3.3679,3.3619,3.3749,3.3767,3.383,3.384,3.3841,3.3847,3.3996,3.3996,3.3997,3.3947,0,0,0,0,0,0,3.3206,3.3234,3.3253,3.3356,3.3387,3.3496,3.3526,3.3544,3.3587,3.3592,3.3684,3.3698,3.375,3.3821,3.3837,3.3848,3.3852,3.3995,3.3996,3.3997,3.3948,3.3946,3.3944,0,0,0,0,0,3.3196,3.3228,3.3254,3.3277,3.3414,3.3497,3.3514,3.3578,3.3587,3.3606,3.3664,3.3695,3.3836,3.3826,3.3845,3.3859,3.3995,3.3996,3.3997,3.3949,3.3946,3.3944,0,0,0,0,0,0,3.3118,3.3243,3.3273,3.334,3.3408,3.351,3.3535,3.3572,3.3634,3.3636,3.3708,3.3728,3.3785,3.3828,3.3815,3.3906,3.3918,3.3923,3.3876,3.3874,3.3871,3.3859,3.3857,0,0,0,0,0,3.311,3.3171,3.3275,3.3324,3.3358,3.3441,3.3478,3.3523,3.3593,3.362,3.3683,3.3746,3.3805,3.3842,3.39,3.3955,3.3976,3.3974,3.3972,3.3969,3.3972,3.4005,3.4006,3.4,3.4,3.4,0,0,3.3091,3.3167,3.32,3.3311,3.3369,3.3427,3.3464,3.3522,3.3565,3.3627,3.3694,3.3741,3.3816,3.3877,3.3906,3.3914,3.3979,3.3971,3.3968,3.3972,3.4006,3.4007,3.4007,3.4001,3.4001,3.4001,0,0,3.3088,3.3152,3.3202,3.3261,3.335,3.3406,3.3418,3.3515,3.3552,3.362,3.3669,3.3719,3.3818,3.3871,3.391,3.3931,3.3963,3.3948,3.3935,3.3967,3.3967,3.3968,3.3976,3.3978,3.395,3.395,3.395,0,3.3052,3.3146,3.3221,3.328,3.3326,3.3393,3.3442,3.3493,3.3594,3.3623,3.3633,3.3762,3.3817,3.3891,3.3897,3.3927,3.3941,3.3937,3.3962,3.3964,3.3965,3.3973,3.3976,3.3948,3.3948,3.3949,3.3949,0,3.3098,3.3163,3.3191,3.3295,3.3345,3.3398,3.3477,3.3518,3.3559,3.3612,3.3681,3.375,3.3826,3.3847,3.3883,3.3926,3.3929,3.3949,3.3963,3.3963,3.3971,3.3975,3.3945,3.3946,3.3946,3.3947,0,0,3.3046,3.3196,3.3205,3.3254,3.336,3.3409,3.3464,3.3544,3.3578,3.3645,3.3692,3.3778,3.3799,3.3844,3.3888,3.3916,3.3929,3.3933,3.3936,3.393,3.398,3.3964,3.3967,3.3951,3.3952,3.3953,3.3974,0,3.3057,3.3166,3.3237,3.3316,3.3376,3.3442,3.349,3.3558,3.361,3.3665,3.3721,3.3781,3.3804,3.3832,3.3863,3.3921,3.394,3.392,3.3992,3.3994,3.3971,3.3971,3.3953,3.397,3.3978,3.3979,3.3979,0,3.3083,3.3158,3.3245,3.3348,3.3375,3.3418,3.3498,3.3552,3.3629,3.3665,3.3718,3.3764,3.3823,3.3833,3.3914,3.3899,3.3933,3.3966,3.3968,3.3976,3.3986,3.3978,3.3977,3.3979,3.3985,3.3985,3.3984,0,3.3038,3.3158,3.3227,3.3267,3.3388,3.3417,3.3467,3.3546,3.359,3.3659,3.3688,3.376,3.3799,3.3852,3.3915,3.3917,3.3989,3.4004,3.4018,3.4016,3.4028,3.4026,3.4031,3.4051,3.4051,3.4051,3.4051,0,3.3042,3.3092,3.3209,3.3251,3.3309,3.3389,3.3442,3.3498,3.3568,3.3619,3.3678,3.3723,3.3805,3.386,3.3909,3.3968,3.3985,3.4013,3.4026,3.4008,3.4004,3.403,3.403,3.4052,3.4052,3.4051,3.4051,0,3.2999,3.308,3.3159,3.327,3.3299,3.3337,3.343,3.3471,3.3529,3.3593,3.3612,3.37,3.3768,3.3838,3.3927,3.3961,3.4018,3.4035,3.3994,3.4,3.401,3.4008,3.4031,3.4038,3.4053,3.4052,3.4052,0,3.2996,3.3038,3.3155,3.3197,3.3249,3.3314,3.3362,3.3442,3.3488,3.3583,3.3612,3.3686,3.375,3.3855,3.3924,3.3993,3.4012,3.4015,3.4022,3.4004,3.4012,3.4008,3.4013,3.4012,3.4011,3.4011,3.401,0,3.2981,3.3021,3.3091,3.3176,3.3233,3.3302,3.3372,3.3402,3.3495,3.3543,3.3618,3.3667,3.3764,3.3835,3.3914,3.3961,3.4,3.4009,3.4015,3.3997,3.3971,3.3986,3.3986,3.4007,3.4007,3.4007,3.4008,3.4008,3.2958,3.3,3.3091,3.3167,3.323,3.3296,3.3342,3.3409,3.3474,3.3562,3.3604,3.3678,3.3756,3.3867,3.3914,3.3971,3.3981,3.399,3.3993,3.3994,3.399,3.3964,3.3985,3.3985,3.3985,3.3985,3.3985,0,3.2947,3.3011,3.3081,3.3182,3.3241,3.3281,3.3362,3.3407,3.3474,3.3547,3.361,3.3696,3.3767,3.3844,3.3919,3.3949,3.3969,3.3966,3.3964,3.3974,3.3976,3.3963,3.3949,3.3949,3.3949,3.3949,3.3949,3.3949,3.2948,3.3021,3.3072,3.3176,3.3238,3.3316,3.3359,3.3419,3.3478,3.3573,3.3635,3.3688,3.3762,3.3844,3.391,3.393,3.3954,3.3946,3.3971,3.3971,3.3974,3.3976,3.3964,3.3951,3.3951,3.3965,3.3966,3.3966]}]]